Regional Weather Roundup
Issued by NWS

Home | Current Version | Previous Version | Graphics & Text | Print | Product List | Glossary On
Versions: 1 2 3 4 5 6 7 8 9 10 11 12 13 14 15 16 17 18 19 20 21 22 23 24 25 26 27 28 29 30 31 32 33 34 35 36 37 38 39 40 41 42 43 44 45 46 47 48 49 50
000
ASUS43 KLOT 251906
RWRIL

ILLINOIS REGIONAL WEATHER ROUNDUP
NATIONAL WEATHER SERVICE CHICAGO/ROMEOVILLE IL
200 PM CDT SAT OCT 25 2014

NOTE: "FAIR" INDICATES FEW OR NO CLOUDS BELOW 12,000 FEET WITH NO
SIGNIFICANT WEATHER AND/OR OBSTRUCTIONS TO VISIBILITY.

* THESE STATIONS ARE NOT UNDER NWS QUALITY CONTROL. THEY ALSO MAY NOT
  REPORT WEATHER SUCH AS PRECIPITATION OR FOG.

ILZ001-002-007-009-015-016-024-252000-
NORTHWEST ILLINOIS

CITY           SKY/WX    TMP DP  RH WIND       PRES   REMARKS
MOLINE         SUNNY     72  39  30 NW13      30.02S
STERLING*      SUNNY     72  36  26 NW15      29.99F
SAVANNA*       SUNNY     70  31  24 NW10      30.00F
$$

ILZ003-004-008-010-011-017-018-252000-
NORTH CENTRAL ILLINOIS

CITY           SKY/WX    TMP DP  RH WIND       PRES   REMARKS
ROCKFORD       MOSUNNY   71  35  26 NW15      29.97F
FREEPORT*      SUNNY     69  34  27 W17       29.99F
ROCHELLE*      SUNNY     71  33  24 NW17      29.97F
DE KALB*       SUNNY     69  35  28 W14G22    29.96F
PERU*          SUNNY     73  37  27 NW15      29.99F
$$

ILZ005-006-012>014-019>023-252000-
NORTHEAST ILLINOIS

CITY           SKY/WX    TMP DP  RH WIND       PRES   REMARKS
CHICAGO-OHARE  MOSUNNY   71  34  25 W15G26    29.92F
CHICAGO-MIDWAY MOSUNNY   73  36  25 W14G22    29.92F
AURORA         SUNNY     73  33  23 NW17G25   29.95F
LANSING*       SUNNY     72  40  31 W12       29.93F
JOLIET*        SUNNY     72  40  31 NW6       29.95F
WAUKEGAN       SUNNY     69  34  27 W13G20    29.89F
DUPAGE AIRPORT SUNNY     72  35  25 W13       29.93F
KANKAKEE*      SUNNY     72  48  42 W12G23    29.96S
WHEELING       SUNNY     73  35  25 W14       29.93F
MORRIS*        SUNNY     74  41  29 W14G20    29.95F
ROMEOVILLE*    SUNNY     73  33  23 NW16      29.94F
NORTHERLY ISL    N/A     70  32  24 W16         N/A
$$

LMZ740>746-252000-
SOUTHERN LAKE MICHIGAN

STATION/POSITION SKY/WX   TEMP    WIND        PRES    VSBY  WAVE
                          AIR SEA DIR/SP/G                  HT/PER
                          (F)     (DEG/KT/KT) (MB)    (MI)  (FT/S)
SOUTHERN BUOY              58 54  240/ 12/ 14 1011.9F         2/ 4
WAUKEGAN HARBOR            68     280/ 18/ 24   N/A
HARRISON CRIB              67     300/ 13/ 15   N/A
BURNHAM HARBOR             71     290/  9/ 18   N/A
CALUMET HARBOR             71     260/  7/ 13 1012.1R
MICHIGAN CITY              58     240/ 12/ 12   N/A
$$

ILZ025>027-034>036-040-047-049-050-058-095>099-252000-
WEST-CENTRAL ILLINOIS

CITY           SKY/WX    TMP DP  RH WIND       PRES   REMARKS
QUINCY         SUNNY     76  50  40 VRB5      30.03F
GALESBURG*     SUNNY     72  41  32 NW10      30.03S
MACOMB*          N/A     74  42  31 N8        30.04F HAZE
JACKSONVILLE*  SUNNY     80  50  35 NW9       30.01F
PITTSFIELD*    SUNNY     79  49  35 NW3       30.04S
$$

ILZ028>032-037-038-041>044-048-051>054-059>061-252000-
CENTRAL ILLINOIS

CITY           SKY/WX    TMP DP  RH WIND       PRES   REMARKS
PONTIAC        SUNNY     73  49  41 NW14      29.98F
BLOOMINGTON    SUNNY     74  49  41 NW12      30.00F
DECATUR        SUNNY     78  52  40 NW12      30.00F
PEORIA         SUNNY     76  47  35 VRB7      30.00F
LACON*         SUNNY     73  39  28 NW12      29.98F
LINCOLN*       SUNNY     76  48  36 NW7       29.97F
SPRINGFIELD    SUNNY     80  50  34 NW8       30.01S HX  80
TAYLORVILLE    SUNNY     75  52  43 NW9       30.00F
$$

ILZ033-039-045-046-055>057-062-063-252000-
EAST-CENTRAL ILLINOIS

CITY           SKY/WX    TMP DP  RH WIND       PRES   REMARKS
CHAMPAIGN      SUNNY     77  52  41 NW13      29.97F
DANVILLE*      SUNNY     74  53  47 W8        29.93F HAZE
RANTOUL*       SUNNY     77  51  39 W10       29.97S
MATTOON        SUNNY     75  53  46 W10       29.98F
PARIS*         SUNNY     78  50  37 NW8       29.98F
$$

ILZ079-100>102-252000-
SOUTHWEST ILLINOIS

CITY           SKY/WX    TMP DP  RH WIND       PRES   REMARKS
BELLEVILLE     SUNNY     79  60  51 VRB5      30.00F HX  80
CAHOKIA*       SUNNY     80  57  45 NW8       30.01F HX  80
SPARTA*        SUNNY     76  60  55 CALM      30.01F
$$

ILZ064>066-069>071-074>076-080>082-084>086-088>090-092>094-252000-
SOUTH-CENTRAL ILLINOIS

CITY           SKY/WX    TMP DP  RH WIND       PRES   REMARKS
CARBONDALE     SUNNY     79  56  45 VRB6      30.01F HX  80
CAIRO*         SUNNY     80  62  54 SW7       30.01F HX  81
EFFINGHAM*     SUNNY     78  51  39 NW9       30.00S
MARION         SUNNY     79  59  50 NW8       30.02F HX  80
MT. VERNON     SUNNY     77  55  47 W6        30.01F
CENTRALIA*     SUNNY     76  53  43 NW6       30.00S
SALEM*         SUNNY     78  56  46 NW6       30.01S
METROPOLIS*    SUNNY     78  63  61 W5        30.00F
$$

ILZ067-068-072-073-078-083-087-091-252000-
SOUTHEAST ILLINOIS

CITY           SKY/WX    TMP DP  RH WIND       PRES   REMARKS
LAWRENCEVILLE  HAZE      77  53  43 NW7       29.98F VSB 3/4
FLORA*         SUNNY     77  51  39 NW9       30.00R
FAIRFIELD*     SUNNY     78  55  45 W3        29.99S
HARRISBURG*    SUNNY     78  58  49 NW5       30.01F
ROBINSON*      SUNNY     81  52  37 NW9       29.98F HX  80
CARMI*         SUNNY     80  56  44 NW5       29.98F HX  80
$$

ABBREVIATIONS USED IN REMARKS
   TC - TEMPERATURE IN CELSIUS
  WCI - WIND CHILL INDEX
   HX - HEAT INDEX
  VSB - VISIBILITY
$$




USA.gov is the U.S. government's official web portal to all federal, state and local government web resources and services.